Stations météo

Publicité
Ouessant, France (7100): Température de l'air & dewpoint: 14.04.2019 14:00:00 - 20.04.2019 14:00:00 (CEST)Ouessant, France (7100): Vitesse du vent & gusts: 14.04.2019 14:00:00 - 20.04.2019 14:00:00 (CEST)Ouessant, France (7100): Direction du vent: 14.04.2019 14:00:00 - 20.04.2019 14:00:00 (CEST)Ouessant, France (7100): reduced air pressure: 14.04.2019 14:00:00 - 20.04.2019 14:00:00 (CEST)Ouessant, France (7100): visibility: 14.04.2019 14:00:00 - 20.04.2019 14:00:00 (CEST)Ouessant, France (7100): Quantités de précipitations: 14.04.2019 14:00:00 - 20.04.2019 14:00:00 (CEST)
Date & Time tt [°C] td [°C] ff [km/h] ff [knt] fx [km/h] fx [knt] dd ppp [hPa] vv [km] rr [mm]
20.04.2019 14:00:00 14,5 9,9 29 16 46 25 NNE 1027,6 6 0,0
20.04.2019 13:00:00 14,4 10,4 27 14 46 25 NNE 1028,1 - 0,0
20.04.2019 12:00:00 14,0 9,6 28 15 38 20 NE 1028,3 - 0,0
20.04.2019 11:00:00 14,2 10,0 23 12 32 18 NE 1028,6 6 0,0
20.04.2019 10:00:00 13,3 10,1 21 11 28 15 NNE 1028,8 - 0,0
20.04.2019 09:00:00 12,3 10,0 21 11 32 17 NE 1028,9 - 0,0
20.04.2019 08:00:00 11,4 9,6 22 12 30 16 NE 1028,6 4,0 0,0
20.04.2019 07:00:00 11,3 9,7 24 13 34 18 NNE 1028,5 - 0,0
20.04.2019 06:00:00 11,5 9,6 28 15 37 20 NE 1028,4 - 0,0
20.04.2019 05:00:00 11,2 10,1 21 11 33 18 NNE 1028,6 - 0,0
20.04.2019 04:00:00 11,2 10,1 23 12 31 17 NNE 1028,5 - 0,0
20.04.2019 03:00:00 11,4 10,1 16 9 22 12 NE 1028,6 - 0,0
20.04.2019 02:00:00 11,1 10,0 18 10 24 13 ENE 1028,4 6 0,0
20.04.2019 01:00:00 11,4 10,0 22 12 36 19 ENE 1028,4 - 0,0
20.04.2019 00:00:00 11,3 10,2 29 15 40 22 NE 1028,4 - 0,0
19.04.2019 23:00:00 11,3 10,2 29 16 46 25 NE 1028,3 6 0,0
19.04.2019 22:00:00 11,3 10,2 27 14 46 25 NE 1028,0 - 0,0
19.04.2019 21:00:00 11,8 10,4 29 15 37 20 NNE 1027,3 - 0,0
19.04.2019 20:00:00 12,7 10,4 21 12 36 19 NNE 1026,5 6 0,0
19.04.2019 19:00:00 13,9 10,5 24 13 37 20 NE 1025,8 - 0,0
19.04.2019 18:00:00 14,8 10,8 23 13 35 19 NE 1025,6 - 0,0
19.04.2019 17:00:00 15,3 11,1 23 13 35 19 NE 1025,3 8 0,0
19.04.2019 16:00:00 15,3 11,5 24 13 37 20 NE 1025,5 - 0,0
19.04.2019 15:00:00 14,5 11,3 27 15 37 20 NNE 1025,3 - 0,0
19.04.2019 14:00:00 15,4 11,4 26 14 40 22 NE 1024,9 4,0 0,0
19.04.2019 13:00:00 14,6 11,6 26 14 34 19 NE 1024,7 - 0,0
19.04.2019 12:00:00 14,4 11,7 23 12 31 17 NE 1024,5 - 0,0
19.04.2019 11:00:00 13,4 11,6 22 12 34 18 NE 1024,3 4,0 0,0
19.04.2019 10:00:00 13,1 11,3 16 8 30 16 NE 1023,9 - 0,0
19.04.2019 09:00:00 11,7 10,9 22 12 31 17 NE 1023,3 - 0,0
19.04.2019 08:00:00 11,2 10,4 6 4 31 17 NE 1022,8 4,0 0,0
19.04.2019 07:00:00 11,1 10,5 21 11 31 17 NE 1022,2 - 0,0
19.04.2019 06:00:00 11,1 10,6 19 10 24 13 NNE 1021,7 - 0,0
19.04.2019 05:00:00 11,3 10,8 19 10 22 12 NNE 1021,5 - 0,0
19.04.2019 04:00:00 11,5 10,7 11 6 16 9 ENE 1021,1 - 0,0
19.04.2019 03:00:00 11,2 10,7 11 6 18 10 NE 1021,1 - 0,0
19.04.2019 02:00:00 12,7 10,9 16 9 20 11 E 1020,8 12 0,0
19.04.2019 01:00:00 11,8 11,0 15 8 18 10 E 1020,8 - 0,0
19.04.2019 00:00:00 11,5 10,9 18 10 25 14 ENE 1020,6 - 0,0
18.04.2019 23:00:00 11,4 10,8 16 9 25 13 N 1020,0 10 0,0
18.04.2019 22:00:00 11,2 10,6 17 9 23 13 N 1019,6 - 0,0
18.04.2019 21:00:00 11,7 9,9 5 3 16 9 N 1019,2 - 0,0
18.04.2019 20:00:00 12,7 10,4 10 5 15 8 NNW 1018,8 18 0,0
18.04.2019 19:00:00 13,3 10,8 11 6 19 11 N 1018,4 - 0,0
18.04.2019 18:00:00 15,2 9,5 6 3 23 13 ESE 1017,8 - 0,0
18.04.2019 17:00:00 14,4 10,0 13 7 35 19 SE 1017,5 18 0,0
18.04.2019 16:00:00 15,5 10,0 20 11 33 18 S 1017,1 - 0,0
18.04.2019 15:00:00 17,1 10,9 12 7 27 14 S 1016,8 - 0,0
18.04.2019 14:00:00 17,1 10,9 11 6 33 18 SSE 1015,8 - 0,0
18.04.2019 13:00:00 17,2 10,8 29 15 32 18 E 1015,0 - 0,0
18.04.2019 12:00:00 15,3 9,9 26 14 44 24 E 1014,7 - 0,0
18.04.2019 11:00:00 14,6 9,8 34 19 46 25 SE 1014,5 20 0,0
18.04.2019 10:00:00 13,7 9,5 32 17 44 24 ESE 1014,2 - 0,0
18.04.2019 09:00:00 12,0 9,2 36 20 42 23 E 1013,5 - 0,0
18.04.2019 08:00:00 11,3 9,2 31 17 35 19 E 1013,2 20 0,0
18.04.2019 07:00:00 11,4 9,0 32 17 41 22 E 1012,4 - 0,0
18.04.2019 06:00:00 11,7 8,7 32 18 39 21 E 1012,1 - 0,0
18.04.2019 05:00:00 11,5 8,9 32 17 40 21 E 1012,6 20 0,0
18.04.2019 04:00:00 11,1 9,2 29 16 39 21 E 1012,7 - 0,0
18.04.2019 03:00:00 11,5 9,2 32 17 37 20 E 1013,1 - 0,0
18.04.2019 02:00:00 12,3 8,8 33 18 37 20 E 1013,4 20 0,0
18.04.2019 01:00:00 12,6 9,4 34 18 41 22 E 1013,4 - 0,0
18.04.2019 00:00:00 12,9 9,5 37 20 46 25 E 1013,0 - 0,0
17.04.2019 23:00:00 12,9 10,1 41 22 53 29 E 1012,7 - 0,0
17.04.2019 22:00:00 13,6 10,0 45 24 51 28 E 1012,2 - 0,0
17.04.2019 21:00:00 12,6 10,3 32 18 42 23 E 1011,8 - 0,0
17.04.2019 20:00:00 12,7 10,6 23 12 58 32 E 1011,6 20 0,0
17.04.2019 19:00:00 13,4 10,4 45 24 55 30 ENE 1011,0 - 0,0
17.04.2019 18:00:00 13,5 10,8 32 17 44 24 ENE 1011,5 - 0,0
17.04.2019 17:00:00 14,1 10,7 26 14 35 19 ENE 1012,1 20 0,0
17.04.2019 16:00:00 15,5 10,5 23 12 28 15 ENE 1012,4 - 0,0
17.04.2019 15:00:00 16,1 10,4 17 9 35 19 ESE 1012,9 - 0,0
17.04.2019 14:00:00 16,0 9,9 26 14 38 21 ESE 1013,2 20 0,0
17.04.2019 13:00:00 15,1 9,9 28 15 37 20 ESE 1013,6 - 0,0
17.04.2019 12:00:00 14,2 9,2 33 18 47 25 ESE 1013,7 - 0,0
17.04.2019 11:00:00 13,0 8,5 39 21 48 26 ESE 1014,1 15 0,0
17.04.2019 10:00:00 12,4 8,3 34 18 43 23 ESE 1014,6 - 0,0
17.04.2019 09:00:00 11,0 8,0 33 18 44 24 ESE 1014,8 - 0,0
17.04.2019 08:00:00 10,3 7,9 32 18 42 23 ESE 1014,9 15 0,0
17.04.2019 07:00:00 10,1 8,7 34 18 41 22 ESE 1014,7 - 0,0
17.04.2019 06:00:00 10,1 9,0 29 16 36 19 ESE 1014,9 - 0,2
17.04.2019 05:00:00 10,0 9,5 26 14 34 19 ESE 1015,4 10 0,0
17.04.2019 04:00:00 10,1 9,6 25 13 34 18 ESE 1016,1 - 0,0
17.04.2019 03:00:00 10,3 10,1 23 12 32 18 ESE 1016,7 - 0,0
17.04.2019 02:00:00 10,4 10,4 24 13 33 18 SE 1017,1 8 0,0
17.04.2019 01:00:00 10,7 10,7 20 11 31 17 SE 1017,2 - 0,0
17.04.2019 00:00:00 10,7 10,7 18 10 31 17 SE 1017,4 - 0,0
16.04.2019 23:00:00 10,8 10,8 14 7 24 13 SE 1017,7 8 0,0
16.04.2019 22:00:00 10,7 10,7 15 8 26 14 S 1017,7 - 0,0
16.04.2019 21:00:00 10,9 10,7 21 11 29 15 S 1017,5 - 0,0
16.04.2019 20:00:00 11,4 11,1 18 10 29 16 S 1017,1 8 0,0
16.04.2019 19:00:00 11,9 11,0 22 12 30 16 S 1017,0 - 0,0
16.04.2019 18:00:00 13,0 11,2 22 12 32 17 S 1017,1 - 0,0
16.04.2019 17:00:00 14,5 11,5 19 11 31 17 S 1017,2 12 0,0
16.04.2019 16:00:00 15,0 11,6 20 11 32 17 SSW 1017,2 - 0,0
16.04.2019 15:00:00 15,4 11,8 17 9 27 15 SSW 1017,3 - 0,0
16.04.2019 14:00:00 15,0 11,9 19 10 28 15 S 1017,2 12 0,0
16.04.2019 13:00:00 12,4 10,1 13 7 21 12 SW 1017,2 - 0,0
16.04.2019 12:00:00 13,8 10,2 13 7 23 12 WSW 1017,0 - 0,0
16.04.2019 11:00:00 11,5 10,7 12 7 19 11 W 1016,7 12 0,0
16.04.2019 10:00:00 11,5 10,6 15 8 21 12 W 1016,1 - 0,0
16.04.2019 09:00:00 10,5 10,5 14 8 19 10 WSW 1015,9 - 0,0
16.04.2019 08:00:00 8,9 8,9 17 9 21 11 W 1015,1 - 0,0
16.04.2019 07:00:00 8,8 8,8 18 10 24 13 W 1014,7 - 0,2
16.04.2019 06:00:00 9,4 9,3 19 11 33 18 W 1014,3 - 0,0
16.04.2019 05:00:00 9,7 9,4 24 13 33 18 W 1014,0 12 0,0
16.04.2019 04:00:00 9,7 9,4 24 13 30 16 W 1013,6 - 0,0
16.04.2019 03:00:00 9,9 9,4 25 14 37 20 WNW 1012,9 - 0,0
16.04.2019 02:00:00 10,0 9,5 27 15 35 19 W 1012,6 4,0 0,0
16.04.2019 01:00:00 10,0 9,4 26 14 37 20 W 1012,2 - 0,0
16.04.2019 00:00:00 9,6 9,3 14 8 21 11 W 1011,7 - 0,2
15.04.2019 23:00:00 9,6 9,6 - - - - - 1011,2 4,0 0,0
15.04.2019 22:00:00 8,9 8,8 27 14 60 33 SSE 1010,6 - 0,4
15.04.2019 21:00:00 8,6 7,8 35 19 - - SE 1009,5 - 0,0
15.04.2019 20:00:00 8,8 7,2 39 21 72 39 SE 1008,5 10 0,0
15.04.2019 19:00:00 8,8 7,2 36 20 82 44 SSE 1008,4 - 0,8
15.04.2019 18:00:00 8,7 6,1 54 29 84 45 SE 1007,7 - 1,6
15.04.2019 17:00:00 9,1 6,0 48 26 81 44 SE 1007,8 7 0,4
15.04.2019 16:00:00 9,4 4,8 51 28 86 46 SE 1008,2 - 0,2
15.04.2019 15:00:00 8,4 4,8 39 21 91 49 SSE 1008,8 - 2,4
15.04.2019 14:00:00 10,8 3,1 46 25 83 45 SE 1008,0 15 0,0
15.04.2019 13:00:00 10,2 2,3 58 32 91 49 SE 1007,5 - 0,0
15.04.2019 12:00:00 10,1 2,7 62 34 - - SE 1008,3 - 0,0
15.04.2019 11:00:00 9,6 2,0 61 33 91 49 SE 1008,8 18 0,0
15.04.2019 10:00:00 8,9 2,5 60 32 91 49 SE 1009,7 - 0,0
15.04.2019 09:00:00 8,7 2,3 67 36 96 52 SE 1010,6 - 0,0
15.04.2019 08:00:00 8,9 3,3 64 35 96 52 SE 1010,9 12 0,0
15.04.2019 07:00:00 9,1 3,7 63 34 91 49 SE 1011,5 - 0,0
15.04.2019 06:00:00 9,6 4,8 61 33 96 52 SE 1011,6 - 0,0
15.04.2019 05:00:00 9,6 5,4 58 31 87 47 SE 1012,5 5 0,0
15.04.2019 04:00:00 9,5 5,5 51 28 81 44 SE 1013,6 - 0,0
15.04.2019 03:00:00 9,8 4,4 57 31 96 52 SE 1014,3 - 0,0
15.04.2019 02:00:00 9,6 5,0 54 29 94 51 SE 1014,7 8 0,0
15.04.2019 01:00:00 8,5 5,1 59 32 91 49 SE 1014,9 - 0,0
15.04.2019 00:00:00 7,8 5,3 61 33 98 53 SE 1015,6 - 0,2
14.04.2019 23:00:00 6,8 5,3 62 33 99 53 SE 1016,1 8 0,2
14.04.2019 22:00:00 6,5 5,4 65 35 99 54 SE 1016,4 - 0,0
14.04.2019 21:00:00 5,9 5,0 72 39 101 54 SE 1016,4 - 0,6
14.04.2019 20:00:00 5,7 4,8 72 39 101 55 SE 1016,3 5 0,2
14.04.2019 19:00:00 6,0 5,7 54 29 79 43 SE 1017,0 - 0,2
14.04.2019 18:00:00 5,7 5,3 61 33 81 44 SE 1017,0 - 2,9
14.04.2019 17:00:00 5,9 5,2 59 32 94 51 SE 1017,6 7 3,4
14.04.2019 16:00:00 6,5 5,4 61 33 85 46 SE 1017,7 - 1,0
14.04.2019 15:00:00 6,6 5,2 57 31 86 46 SE 1017,7 - 0,8
14.04.2019 14:00:00 6,6 5,2 61 33 91 49 SE 1017,6 7 0,2

tt = Température de l'air
td = dewpoint
ff = Vitesse du vent
fx = gusts
dd = Direction du vent
ppp = reduced air pressure
vv = visibility
rr = Quantités de précipitations

stations d'obs. à proximité